BTK6338 WIII-WAHS

Flight info

Callsign BTK6338
Flight time 0h 43m
Altitude 25000
Route CA
Aircraft A320/M-SDE3FGHIRWY/LB1

Departure

Time 2026-04-15 04:58
Airport Soekarno-Hatta International Airport (WIII)

Arrival

Time 2026-04-15 05:41
Airport Jenderal Ahmad Yani Airport (WAHS)
Time Latitude Longitude Altitude Speed Heading
2026-04-15 04:31 -6.12402 106.64889 0 ft 0 kts 95°
2026-04-15 04:46 -6.12398 106.64848 39 ft 3 kts 95°
2026-04-15 04:46 -6.12396 106.64828 39 ft 2 kts 91°
2026-04-15 04:47 -6.12397 106.64817 39 ft 1 kts 58°
2026-04-15 04:47 -6.12403 106.64809 37 ft 1 kts 26°
2026-04-15 04:47 -6.12415 106.64805 34 ft 2 kts
2026-04-15 04:47 -6.12428 106.64805 39 ft 1 kts 350°
2026-04-15 04:48 -6.12436 106.64806 37 ft 1 kts 345°
2026-04-15 04:48 -6.12444 106.64808 36 ft 1 kts 342°
2026-04-15 04:48 -6.12449 106.64810 37 ft 0 kts 340°
2026-04-15 04:50 -6.12448 106.64810 37 ft 1 kts 340°
2026-04-15 04:50 -6.12422 106.64800 38 ft 6 kts 340°
2026-04-15 04:50 -6.12369 106.64780 38 ft 10 kts 338°
2026-04-15 04:51 -6.12296 106.64767 38 ft 12 kts
2026-04-15 04:51 -6.12210 106.64746 36 ft 13 kts 338°
2026-04-15 04:51 -6.12125 106.64711 38 ft 14 kts 338°
2026-04-15 04:51 -6.12039 106.64677 38 ft 13 kts 339°
2026-04-15 04:52 -6.11964 106.64696 38 ft 13 kts 59°
2026-04-15 04:52 -6.11925 106.64790 38 ft 16 kts 68°
2026-04-15 04:52 -6.11881 106.64901 36 ft 18 kts 68°
2026-04-15 04:52 -6.11832 106.65025 38 ft 20 kts 68°
2026-04-15 04:53 -6.11776 106.65164 38 ft 23 kts 68°
2026-04-15 04:53 -6.11716 106.65317 38 ft 24 kts 68°
2026-04-15 04:53 -6.11650 106.65482 36 ft 26 kts 68°
2026-04-15 04:53 -6.11580 106.65659 37 ft 28 kts 68°
2026-04-15 04:54 -6.11508 106.65839 35 ft 22 kts 69°
2026-04-15 04:54 -6.11449 106.65986 38 ft 24 kts 68°
2026-04-15 04:54 -6.11385 106.66146 38 ft 26 kts 68°
2026-04-15 04:54 -6.11317 106.66317 37 ft 27 kts 68°
2026-04-15 04:55 -6.11245 106.66498 38 ft 29 kts 68°
2026-04-15 04:55 -6.11184 106.66650 38 ft 21 kts 69°
2026-04-15 04:55 -6.11135 106.66775 35 ft 20 kts 68°
2026-04-15 04:55 -6.11083 106.66905 38 ft 18 kts 67°
2026-04-15 04:56 -6.11030 106.66972 38 ft 11 kts 19°
2026-04-15 04:56 -6.10953 106.66940 37 ft 13 kts 313°
2026-04-15 04:56 -6.10909 106.66899 36 ft 8 kts 330°
2026-04-15 04:56 -6.10907 106.66858 36 ft 0 kts 248°
2026-04-15 04:57 -6.10911 106.66847 36 ft 9 kts 248°
2026-04-15 04:57 -6.11029 106.66553 37 ft 81 kts 248°
2026-04-15 04:57 -6.11311 106.65843 36 ft 135 kts 249°
2026-04-15 04:57 -6.11722 106.64832 107 ft 171 kts 247°
2026-04-15 04:58 -6.12177 106.63702 672 ft 176 kts 247°
2026-04-15 04:58 -6.12601 106.62527 1325 ft 182 kts 255°
2026-04-15 04:58 -6.12623 106.61211 1722 ft 200 kts 283°
2026-04-15 04:58 -6.12177 106.59807 1962 ft 223 kts 291°
2026-04-15 04:59 -6.11563 106.58277 2351 ft 248 kts 292°
2026-04-15 04:59 -6.10886 106.56600 2828 ft 268 kts 291°
2026-04-15 04:59 -6.10199 106.54828 3675 ft 273 kts 290°
2026-04-15 04:59 -6.09520 106.53042 4565 ft 275 kts 295°
2026-04-15 05:00 -6.08361 106.51513 5363 ft 280 kts 322°
2026-04-15 05:00 -6.06603 106.50687 6163 ft 284 kts 348°
2026-04-15 05:00 -6.04626 106.50751 6931 ft 289 kts 18°
2026-04-15 05:00 -6.02811 106.51635 7669 ft 294 kts 36°
2026-04-15 05:01 -6.01344 106.53064 7941 ft 295 kts 55°
2026-04-15 05:01 -6.00430 106.54896 7999 ft 293 kts 75°
2026-04-15 05:01 -6.00080 106.56906 8007 ft 292 kts 84°
2026-04-15 05:01 -5.99812 106.58930 8028 ft 293 kts 83°
2026-04-15 05:02 -5.99528 106.60971 8709 ft 296 kts 83°
2026-04-15 05:02 -5.99244 106.62993 9468 ft 298 kts 83°
2026-04-15 05:02 -5.98953 106.65067 10186 ft 302 kts 83°
2026-04-15 05:02 -5.98650 106.67235 10380 ft 325 kts 83°
2026-04-15 05:03 -5.98324 106.69560 10523 ft 346 kts 83°
2026-04-15 05:03 -5.97983 106.71994 10938 ft 356 kts 83°
2026-04-15 05:03 -5.97636 106.74473 11518 ft 360 kts 83°
2026-04-15 05:03 -5.97288 106.76950 12117 ft 363 kts 83°
2026-04-15 05:04 -5.96930 106.79490 12708 ft 366 kts 83°
2026-04-15 05:04 -5.96692 106.82045 13272 ft 368 kts 91°
2026-04-15 05:04 -5.96958 106.84600 13818 ft 370 kts 103°
2026-04-15 05:04 -5.97742 106.87061 14376 ft 371 kts 114°
2026-04-15 05:05 -5.98768 106.89451 14919 ft 374 kts 114°
2026-04-15 05:05 -5.99798 106.91860 15454 ft 377 kts 114°
2026-04-15 05:05 -6.00831 106.94286 15987 ft 379 kts 114°
2026-04-15 05:05 -6.01871 106.96730 16494 ft 382 kts 114°
2026-04-15 05:06 -6.02916 106.99191 16990 ft 385 kts 114°
2026-04-15 05:06 -6.03970 107.01675 17481 ft 387 kts 114°
2026-04-15 05:06 -6.05030 107.04173 17964 ft 390 kts 114°
2026-04-15 05:06 -6.06102 107.06692 18447 ft 393 kts 114°
2026-04-15 05:07 -6.07178 107.09218 18918 ft 396 kts 114°
2026-04-15 05:07 -6.08267 107.11774 19385 ft 398 kts 114°
2026-04-15 05:07 -6.09280 107.14159 19817 ft 401 kts 114°
2026-04-15 05:07 -6.10374 107.16743 20269 ft 403 kts 114°
2026-04-15 05:08 -6.11476 107.19342 20721 ft 405 kts 114°
2026-04-15 05:08 -6.12586 107.21956 21162 ft 408 kts 113°
2026-04-15 05:08 -6.13688 107.24550 21576 ft 410 kts 114°
2026-04-15 05:08 -6.14810 107.27193 21984 ft 413 kts 113°
2026-04-15 05:09 -6.15939 107.29851 22365 ft 415 kts 113°
2026-04-15 05:09 -6.17074 107.32530 22738 ft 417 kts 113°
2026-04-15 05:09 -6.18212 107.35220 23111 ft 420 kts 113°
2026-04-15 05:09 -6.19355 107.37929 23465 ft 422 kts 113°
2026-04-15 05:10 -6.20505 107.40655 23816 ft 425 kts 112°
2026-04-15 05:10 -6.21660 107.43395 24155 ft 427 kts 112°
2026-04-15 05:10 -6.22820 107.46149 24500 ft 429 kts 113°
2026-04-15 05:10 -6.23990 107.48915 24805 ft 431 kts 112°
2026-04-15 05:11 -6.25165 107.51687 24885 ft 433 kts 112°
2026-04-15 05:11 -6.26351 107.54483 24893 ft 435 kts 112°
2026-04-15 05:11 -6.27537 107.57283 24892 ft 436 kts 112°
2026-04-15 05:11 -6.28722 107.60090 24893 ft 436 kts 112°
2026-04-15 05:12 -6.29905 107.62899 24892 ft 436 kts 112°
2026-04-15 05:12 -6.31089 107.65708 24892 ft 436 kts 112°
2026-04-15 05:12 -6.32273 107.68513 24892 ft 436 kts 112°
2026-04-15 05:12 -6.33462 107.71324 24893 ft 436 kts 112°
2026-04-15 05:13 -6.34647 107.74127 24894 ft 436 kts 112°
2026-04-15 05:13 -6.35832 107.76937 24893 ft 436 kts 112°
2026-04-15 05:13 -6.37016 107.79746 24893 ft 436 kts 112°
2026-04-15 05:13 -6.38199 107.82553 24894 ft 436 kts 112°
2026-04-15 05:14 -6.39384 107.85361 24895 ft 436 kts 112°
2026-04-15 05:14 -6.40571 107.88171 24894 ft 436 kts 112°
2026-04-15 05:14 -6.41757 107.90977 24894 ft 436 kts 112°
2026-04-15 05:14 -6.42943 107.93781 24893 ft 436 kts 112°
2026-04-15 05:15 -6.44111 107.96549 24890 ft 436 kts 112°
2026-04-15 05:15 -6.45292 107.99355 24891 ft 436 kts 112°
2026-04-15 05:15 -6.46476 108.02162 24890 ft 436 kts 112°
2026-04-15 05:15 -6.47675 108.04962 24891 ft 436 kts 113°
2026-04-15 05:16 -6.48888 108.07754 24890 ft 436 kts 113°
2026-04-15 05:16 -6.50109 108.10543 24889 ft 436 kts 113°
2026-04-15 05:16 -6.51334 108.13335 24889 ft 436 kts 113°
2026-04-15 05:16 -6.52553 108.16121 24889 ft 436 kts 113°
2026-04-15 05:17 -6.53767 108.18912 24889 ft 436 kts 113°
2026-04-15 05:17 -6.54978 108.21709 24888 ft 436 kts 113°
2026-04-15 05:17 -6.56185 108.24503 24888 ft 436 kts 113°
2026-04-15 05:17 -6.57395 108.27297 24889 ft 436 kts 113°
2026-04-15 05:18 -6.58602 108.30087 24889 ft 436 kts 113°
2026-04-15 05:18 -6.59815 108.32892 24890 ft 436 kts 113°
2026-04-15 05:18 -6.61021 108.35686 24891 ft 436 kts 113°
2026-04-15 05:18 -6.62229 108.38485 24891 ft 436 kts 113°
2026-04-15 05:19 -6.63438 108.41284 24892 ft 436 kts 113°
2026-04-15 05:19 -6.64647 108.44081 24893 ft 436 kts 113°
2026-04-15 05:19 -6.65857 108.46875 24894 ft 436 kts 113°
2026-04-15 05:19 -6.67070 108.49673 24895 ft 436 kts 113°
2026-04-15 05:20 -6.68283 108.52471 24895 ft 436 kts 113°
2026-04-15 05:20 -6.69438 108.55289 24892 ft 436 kts 109°
2026-04-15 05:20 -6.70175 108.58247 24883 ft 437 kts 99°
2026-04-15 05:20 -6.70649 108.61265 24881 ft 437 kts 99°
2026-04-15 05:21 -6.71125 108.64280 24880 ft 437 kts 99°
2026-04-15 05:21 -6.71605 108.67300 24880 ft 437 kts 99°
2026-04-15 05:21 -6.72088 108.70318 24881 ft 437 kts 99°
2026-04-15 05:21 -6.72575 108.73336 24882 ft 437 kts 99°
2026-04-15 05:22 -6.73065 108.76354 24881 ft 437 kts 99°
2026-04-15 05:22 -6.73554 108.79377 24882 ft 438 kts 99°
2026-04-15 05:22 -6.74039 108.82399 24882 ft 438 kts 99°
2026-04-15 05:22 -6.74520 108.85420 24884 ft 438 kts 99°
2026-04-15 05:23 -6.75003 108.88442 24884 ft 438 kts 99°
2026-04-15 05:23 -6.75488 108.91465 24871 ft 437 kts 99°
2026-04-15 05:23 -6.75962 108.94442 24621 ft 426 kts 99°
2026-04-15 05:23 -6.76428 108.97374 24371 ft 422 kts 99°
2026-04-15 05:24 -6.76889 109.00275 24122 ft 420 kts 99°
2026-04-15 05:24 -6.77345 109.03125 23875 ft 418 kts 99°
2026-04-15 05:24 -6.77810 109.06041 23622 ft 417 kts 99°
2026-04-15 05:24 -6.78268 109.08918 23373 ft 415 kts 99°
2026-04-15 05:25 -6.78722 109.11780 23127 ft 414 kts 99°
2026-04-15 05:25 -6.79171 109.14633 22872 ft 412 kts 99°
2026-04-15 05:25 -6.79597 109.17482 22623 ft 411 kts 98°
2026-04-15 05:25 -6.79999 109.20324 22372 ft 410 kts 98°
2026-04-15 05:26 -6.80386 109.23143 21977 ft 404 kts 98°
2026-04-15 05:26 -6.80765 109.25934 21473 ft 401 kts 98°
2026-04-15 05:26 -6.81144 109.28703 20988 ft 398 kts 98°
2026-04-15 05:26 -6.81525 109.31447 20499 ft 395 kts 98°
2026-04-15 05:27 -6.81908 109.34170 19997 ft 392 kts 98°
2026-04-15 05:27 -6.82294 109.36873 19497 ft 389 kts 98°
2026-04-15 05:27 -6.82678 109.39557 18969 ft 386 kts 98°
2026-04-15 05:27 -6.83057 109.42222 18463 ft 384 kts 98°
2026-04-15 05:28 -6.83431 109.44871 17918 ft 381 kts 98°
2026-04-15 05:28 -6.83802 109.47501 17394 ft 379 kts 98°
2026-04-15 05:28 -6.84171 109.50121 16845 ft 377 kts 98°
2026-04-15 05:28 -6.84512 109.52735 16173 ft 378 kts 94°
2026-04-15 05:29 -6.84525 109.55366 15400 ft 382 kts 89°
2026-04-15 05:29 -6.84481 109.58063 14848 ft 379 kts 89°
2026-04-15 05:29 -6.84430 109.60673 14314 ft 376 kts 89°
2026-04-15 05:29 -6.84377 109.63296 13764 ft 374 kts 89°
2026-04-15 05:30 -6.84326 109.65900 13225 ft 370 kts 89°
2026-04-15 05:30 -6.84280 109.68479 12685 ft 367 kts 89°
2026-04-15 05:30 -6.84239 109.71036 12148 ft 364 kts 90°
2026-04-15 05:30 -6.84200 109.73575 11612 ft 361 kts 90°
2026-04-15 05:31 -6.84160 109.76092 11083 ft 358 kts 90°
2026-04-15 05:31 -6.84120 109.78584 10553 ft 355 kts 90°
2026-04-15 05:31 -6.84083 109.81044 10284 ft 345 kts 90°
2026-04-15 05:31 -6.84048 109.83415 10149 ft 332 kts 90°
2026-04-15 05:32 -6.84012 109.85697 10028 ft 321 kts 90°
2026-04-15 05:32 -6.83975 109.87900 9902 ft 310 kts 90°
2026-04-15 05:32 -6.83937 109.90038 9762 ft 301 kts 90°
2026-04-15 05:33 -6.83852 109.91735 8709 ft 321 kts 86°
2026-04-15 05:33 -6.83606 109.94064 7710 ft 340 kts 87°
2026-04-15 05:33 -6.83546 109.95528 7617 ft 331 kts 90°
2026-04-15 05:34 -6.83555 109.97802 7493 ft 318 kts 92°
2026-04-15 05:34 -6.83605 109.99984 7367 ft 306 kts 92°
2026-04-15 05:34 -6.83647 110.02088 7235 ft 294 kts 92°
2026-04-15 05:34 -6.83664 110.04106 6768 ft 285 kts 91°
2026-04-15 05:35 -6.83657 110.06088 6194 ft 282 kts 91°
2026-04-15 05:35 -6.83635 110.08053 5606 ft 279 kts 90°
2026-04-15 05:35 -6.83607 110.09976 5120 ft 271 kts 89°
2026-04-15 05:35 -6.83577 110.11857 4566 ft 267 kts 89°
2026-04-15 05:36 -6.83545 110.13712 3976 ft 264 kts 89°
2026-04-15 05:36 -6.83511 110.15545 3608 ft 259 kts 89°
2026-04-15 05:36 -6.83480 110.17332 3476 ft 251 kts 89°
2026-04-15 05:36 -6.83453 110.19053 3361 ft 241 kts 89°
2026-04-15 05:37 -6.83572 110.20693 3255 ft 231 kts 104°
2026-04-15 05:37 -6.84239 110.22111 3158 ft 221 kts 126°
2026-04-15 05:37 -6.85210 110.23275 3055 ft 214 kts 128°
2026-04-15 05:37 -6.86168 110.24408 2948 ft 212 kts 128°
2026-04-15 05:38 -6.87115 110.25529 2740 ft 208 kts 128°
2026-04-15 05:38 -6.88046 110.26631 2481 ft 206 kts 128°
2026-04-15 05:38 -6.88971 110.27728 2210 ft 205 kts 130°
2026-04-15 05:38 -6.89874 110.28796 1967 ft 194 kts 130°
2026-04-15 05:39 -6.90714 110.29792 1709 ft 180 kts 130°
2026-04-15 05:39 -6.91482 110.30702 1464 ft 163 kts 131°
2026-04-15 05:39 -6.92173 110.31521 1264 ft 147 kts 130°
2026-04-15 05:39 -6.92823 110.32291 1077 ft 142 kts 130°
2026-04-15 05:40 -6.93460 110.33041 869 ft 140 kts 131°
2026-04-15 05:40 -6.94079 110.33788 719 ft 138 kts 130°
2026-04-15 05:40 -6.94701 110.34522 534 ft 138 kts 131°
2026-04-15 05:40 -6.95327 110.35263 329 ft 139 kts 130°
2026-04-15 05:41 -6.95951 110.36008 148 ft 140 kts 131°
2026-04-15 05:41 -6.96585 110.36756 18 ft 136 kts 130°
2026-04-15 05:41 -6.97099 110.37365 4 ft 78 kts 130°
2026-04-15 05:41 -6.97314 110.37623 5 ft 40 kts 130°
2026-04-15 05:42 -6.97475 110.37813 7 ft 26 kts 130°
2026-04-15 05:42 -6.97595 110.37954 6 ft 26 kts 130°
2026-04-15 05:42 -6.97671 110.38058 8 ft 16 kts 108°
2026-04-15 05:42 -6.97710 110.38097 6 ft 7 kts 256°
2026-04-15 05:43 -6.97681 110.38050 6 ft 9 kts 312°
2026-04-15 05:43 -6.97632 110.37996 6 ft 12 kts 312°
2026-04-15 05:43 -6.97566 110.37918 6 ft 17 kts 310°
2026-04-15 05:43 -6.97481 110.37819 7 ft 20 kts 311°
2026-04-15 05:44 -6.97383 110.37704 5 ft 24 kts 310°
2026-04-15 05:44 -6.97269 110.37568 5 ft 27 kts 310°
2026-04-15 05:44 -6.97162 110.37441 4 ft 15 kts 310°
2026-04-15 05:44 -6.97070 110.37441 9 ft 13 kts 40°
2026-04-15 05:45 -6.97004 110.37496 16 ft 15 kts 39°
2026-04-15 05:45 -6.96941 110.37549 18 ft 8 kts 40°
2026-04-15 05:45 -6.96900 110.37552 18 ft 7 kts 320°
2026-04-15 05:45 -6.96864 110.37512 18 ft 9 kts 309°
2026-04-15 05:46 -6.96816 110.37455 18 ft 12 kts 310°
2026-04-15 05:46 -6.96764 110.37392 18 ft 10 kts 310°
2026-04-15 05:46 -6.96729 110.37389 21 ft 6 kts 27°
2026-04-15 05:46 -6.96704 110.37409 19 ft 4 kts 40°
2026-04-15 05:47 -6.96689 110.37422 19 ft 2 kts 40°
2026-04-15 05:47 -6.96686 110.37425 19 ft 0 kts 40°